Location: Serin Observatory
(40.5200°N, 74.4500°W)
Time: 13:24:36
(UTC+00:00)

SL-8 R/B - Visible Passes

Search period start: 01 July 2016 00:00
Search period end: 11 July 2016 00:00
Orbit: 658 x 668 km, 48.4° (Epoch: 01 July)

Date Brightness Start Highest point End Pass type
(mag) Time Alt. Az. Time Alt. Az. Time Alt. Az.
01 Jul 5.7 08:30:18 10° S 08:33:35 19° SE 08:36:52 10° E visible
03 Jul 5.5 07:50:48 14° S 07:53:21 20° SE 07:56:49 10° E visible
04 Jul 4.3 08:20:34 15° SSW 08:24:11 46° SE 08:28:46 10° ENE visible
05 Jul 5.2 07:12:18 21° SSE 07:13:09 22° SE 07:16:46 10° E visible
05 Jul 3.7 08:50:29 10° WSW 08:55:16 83° NNW 09:00:05 10° ENE visible
06 Jul 4.1 07:41:57 30° SSW 07:44:00 50° SE 07:48:37 10° ENE visible
07 Jul 5.3 06:33:36 22° ESE 06:33:36 22° ESE 06:36:42 10° E visible
07 Jul 3.7 08:11:34 18° WSW 08:15:06 79° NNW 08:19:54 10° ENE visible
08 Jul 3.9 07:03:08 49° S 07:03:49 53° SE 07:08:28 10° ENE visible
08 Jul 4.5 08:41:51 10° W 08:46:27 45° NNW 08:51:03 10° NE visible
09 Jul 5.6 05:54:41 19° E 05:54:41 19° E 05:56:37 10° E visible
09 Jul 3.7 07:32:39 31° WSW 07:34:56 75° NNW 07:39:44 10° ENE visible
10 Jul 4.0 06:24:09 54° ESE 06:24:09 54° ESE 06:28:19 10° ENE visible
10 Jul 4.6 08:02:06 12° W 08:06:19 44° NNW 08:10:53 10° NE visible
